Home   Weather   Kingstown   Past weeks
Flag for Saint Vincent and Grenadines

Past Weather in Kingstown, Saint Vincent and Grenadines — Yesterday and Last 2 Weeks

Now
84 °F

Sprinkles. Partly sunny.


Feels Like: 94 °F
Forecast: 87 / 79 °F
Wind: 18 mph from East

Location: Hewanorra International Airport

Current Time: Oct 16, 2019 at 8:30:01 am

Latest Report: Oct 16, 2019 at 8:00 am


Visibility: N/A

Pressure: 29.95 "Hg

Humidity: 79%

Dew Point: 77 °F

Location of KingstownLocation

Past Weather in Kingstown — Graph

°F

Kingstown Temperature Yesterday

Maximum temperature yesterday: 90 °F (at 12:00 pm)
Minimum temperature yesterday: 82 °F (at 12:00 am)
Average temperature yesterday: 85 °F

High & Low Weather Summary for the Past Weeks

 TemperatureHumidityPressure
High90 °F (Oct 1, 11:00 am)100% (Oct 14, 1:00 pm)30.01 "Hg (Oct 14, 1:00 pm)
Low77 °F (Oct 11, 6:00 am)59% (Oct 1, 1:00 pm)29.83 "Hg (Oct 1, 3:00 pm)
Average85 °F74%29.90 "Hg
* Reported Oct 1 7:00 am — Oct 16 7:00 am, Kingstown. Weather by CustomWeather, © 2019

Note: Actual official high and low records may vary slightly from our data, if they occured in-between our weather recording intervals... More about our weather records

Advertising

Kingstown Weather History for the Previous 24 Hours

Scroll right to see more
 ConditionsComfort  
Time TempWeatherWind HumidityBarometerVisibility
7:00 am
Wed, Oct 16
82 °FScattered clouds.12 mph84%29.92 "HgN/A
6:00 am81 °FPartly sunny.12 mph84%29.92 "HgN/A
5:00 am82 °FScattered showers. Passing clouds.10 mph84%29.89 "HgN/A
4:00 am82 °FPassing clouds.15 mph79%29.89 "HgN/A
3:00 am82 °FPassing clouds.14 mph79%29.89 "HgN/A
2:00 am81 °FScattered showers. Passing clouds.10 mph84%29.89 "Hg6 mi
1:00 am82 °FScattered showers. Partly cloudy.13 mph84%29.92 "Hg5 mi
12:00 am82 °FPassing clouds.17 mph79%29.95 "HgN/A
11:00 pm
Tue, Oct 15
84 °FPassing clouds.17 mph79%29.95 "HgN/A
10:00 pm84 °FPassing clouds.17 mph74%29.95 "HgN/A
9:00 pm84 °FPassing clouds.17 mph74%29.95 "HgN/A
8:00 pm84 °FPassing clouds.16 mph74%29.92 "HgN/A
7:00 pm84 °FPassing clouds.20 mph74%29.89 "HgN/A
6:00 pm84 °FPassing clouds.17 mph74%29.89 "HgN/A
5:00 pm86 °FPassing clouds.17 mph70%29.89 "HgN/A
4:00 pm88 °FPassing clouds.17 mph66%29.89 "HgN/A
3:00 pm88 °FPassing clouds.15 mph62%29.89 "HgN/A
2:00 pm90 °FScattered clouds.18 mph63%29.92 "HgN/A
1:00 pm90 °FScattered clouds.18 mph63%29.92 "HgN/A
12:00 pm90 °FPassing clouds.17 mph63%29.95 "HgN/A
11:00 am88 °FPassing clouds.16 mph66%29.95 "HgN/A
10:00 am88 °FPassing clouds.16 mph66%29.98 "HgN/A
9:00 am88 °FPassing clouds.18 mph66%29.98 "HgN/A
8:00 am86 °FScattered clouds.20 mph75%29.95 "HgN/A
Weather by CustomWeather, © 2019

See weather overview